This is the latest recevied weather packets stored in our database for station/object N0QV. If no packets are shown the sender has not sent any weather packets the latest 10 day(s).
| Time | Temp. | Humidity | Pressure | Rain* | Wind** | Luminosity | Snow |
|---|---|---|---|---|---|---|---|
| 1788550112 | 33.89° C | 60% | 1011.9 hPa | 0 mm | - | 576 W/m² | - |
| 1788549807 | 33.89° C | 58% | 1011.9 hPa | 0 mm | - | 564 W/m² | - |
| 1788549504 | 33.89° C | 57% | 1011.7 hPa | 0 mm | - | 394 W/m² | - |
| 1788549200 | 33.89° C | 58% | 1011.9 hPa | 0 mm | - | 627 W/m² | - |
| 1788548896 | 33.89° C | 59% | 1011.9 hPa | 0 mm | - | 636 W/m² | - |
| 1788548592 | 33.89° C | 58% | 1011.9 hPa | 0 mm | - | 537 W/m² | - |
| 1788548288 | 33.89° C | 58% | 1011.9 hPa | 0 mm | - | 339 W/m² | - |
| 1788547983 | 33.33° C | 60% | 1011.8 hPa | 0 mm | - | 154 W/m² | - |
| 1788547682 | 33.89° C | 61% | 1011.9 hPa | 0 mm | - | 169 W/m² | - |
| 1788547378 | 33.89° C | 60% | 1012.1 hPa | 0 mm | - | 355 W/m² | - |
| 1788547074 | 33.33° C | 61% | 1012.2 hPa | 0 mm | - | 257 W/m² | - |
| 1788546774 | 33.33° C | 61% | 1012.3 hPa | 0 mm | - | 186 W/m² | - |
| 1788546469 | 33.33° C | 62% | 1012.2 hPa | 0 mm | - | 166 W/m² | - |
| 1788546164 | 33.33° C | 61% | 1012.2 hPa | 0 mm | - | 376 W/m² | - |
| 1788545860 | 33.33° C | 62% | 1012.1 hPa | 0 mm | - | 201 W/m² | - |
| 1788545559 | 33.89° C | 61% | 1012 hPa | 0 mm | - | 159 W/m² | - |
| 1788545255 | 33.89° C | 60% | 1012.1 hPa | 0 mm | - | 115 W/m² | - |
| 1788544950 | 33.89° C | 60% | 1012.2 hPa | 0 mm | - | 360 W/m² | - |
| 1788544649 | 33.33° C | 60% | 1012.1 hPa | 0 mm | - | 527 W/m² | - |
| 1788544347 | 32.78° C | 61% | 1012.1 hPa | 0 mm | - | 530 W/m² | - |
| 1788544043 | 32.22° C | 64% | 1012.2 hPa | 0 mm | - | 479 W/m² | - |
| 1788543739 | 32.78° C | 63% | 1012 hPa | 0 mm | - | 172 W/m² | - |
| 1788543435 | 32.78° C | 64% | 1012.3 hPa | 0 mm | - | 184 W/m² | - |
| 1788543134 | 32.78° C | 64% | 1012.1 hPa | 0 mm | - | 106 W/m² | - |
| 1788542831 | 32.78° C | 65% | 1012 hPa | 0 mm | - | 167 W/m² | - |
* Rain latest hour (hover to see other rain measurements)
** Current wind speed in m/s (hover to see current wind gust speed)